Regional Weather Roundup
Issued by NWS

Home | Current Version | Previous Version | Graphics & Text | Print | Product List | Glossary On
Versions: 1 2 3 4 5 6 7 8 9 10 11 12 13 14 15 16 17 18 19 20 21 22 23 24 25 26 27 28 29 30 31 32 33 34 35 36 37 38 39 40 41 42 43 44 45 46 47 48 49 50
000
ASUS45 KBOU 231507
RWRCO

WEATHER ROUNDUP FOR COLORADO
NATIONAL WEATHER SERVICE DENVER/BOULDER CO
900 AM MDT MON OCT 23 2017

NOTE: "FAIR" INDICATES FEW OR NO CLOUDS BELOW 12000 FEET WITH NO
SIGNIFICANT WEATHER AND/OR OBSTRUCTIONS TO VISIBILITY.

COZ001>005-013-030-031-231600-
...NORTHWEST COLORADO...

CITY           SKY/WX    TMP DP  RH WIND       PRES   REMARKS
CRAIG          FAIR      47  30  51 CALM      30.51R
HAYDEN         FAIR      44  31  60 SW6       30.52R
MEEKER         FAIR      40  32  73 SE3       30.52R
RABBIT EARS PA CLOUDY    30  28  93 W16G32    30.51R WCI  19
STEAMBOAT SPGS FAIR      46  29  51 W18G25    30.49R
WALDEN         NOT AVBL
$$

COZ006>008-011-231600-
...WEST CENTRAL VALLEYS...

CITY           SKY/WX    TMP DP  RH WIND       PRES   REMARKS
GRAND JUNCTION FAIR      45  26  47 S3        30.48R
MONTROSE       FAIR      41  25  53 CALM      30.53R
EAGLE          FAIR      42  28  57 CALM      30.53R
RIFLE          FAIR      39  31  72 CALM      30.53R
DELTA          FAIR      42  25  50 CALM      30.51S
NUCLA          FAIR      43  21  42 SE5       30.54R
$$

COZ017>023-064>068-231600-
...SOUTHWEST COLORADO...

CITY           SKY/WX    TMP DP  RH WIND       PRES   REMARKS
DURANGO        FAIR      38  23  55 CALM      30.46R
CORTEZ         FAIR      42  24  49 E6        30.46R
PAGOSA SPRINGS FAIR      40  22  49 NE5       30.49R
TELLURIDE      FAIR      41  25  52 CALM      30.61R
WOLF CREEK PAS FAIR      36  23  60 N6        30.70R
$$

COZ009-010-012-014-032>034-037-058>063-231600-
...CENTRAL COLORADO...

CITY           SKY/WX    TMP DP  RH WIND       PRES   REMARKS
ASPEN          FAIR      40  30  67 S6        30.54R
BUENA VISTA    FAIR      50  24  35 CALM      30.48R
COPPER MTN     PTSUNNY   34  27  75 NW18      30.62R WCI  23
BERTHOUD PASS  PTSUNNY   25  14  63 NW53G66   30.50F WCI   4
COTTONWOOD PAS FAIR      46  28  49 W10G22    30.54R
GUNNISON       FAIR      35  22  58 CALM      30.53R
KREMMLING      CLOUDY    54  30  40 W9        30.53R
LEADVILLE      CLOUDY    39  22  50 N8G18     30.55R
MONARCH PASS   FAIR      30  23  74 W20       30.72R WCI  18
SALIDA         FAIR      54  26  33 SW6       30.54R
SUNLIGHT       FAIR      32  19  59 W7        30.67R WCI  26
WILKERSON PASS FAIR      36  23  60 SW5       30.58R
$$

COZ069>075-231600-
...SAN LUIS VALLEY/SANGRE DE CRISTO MOUNTAINS...

CITY           SKY/WX    TMP DP  RH WIND       PRES   REMARKS
ALAMOSA        FAIR      36  22  56 SW6       30.50R
DEL NORTE      FAIR      44  22  41 W6        30.50R
LA VETA PASS   FAIR      39  23  52 MISG      30.65R
SAGUACHE       FAIR      50  27  40 N8        30.50R
$$

COZ035-036-038>040-231600-
...NORTHERN COLORADO FRONT RANGE...

CITY           SKY/WX    TMP DP  RH WIND       PRES   REMARKS
DENVER INTL AP PTSUNNY   41  30  65 NE14      30.46R
DMNS CITY PARK   N/A     41  31  69 E12       30.48R
AURORA         PTSUNNY   39  32  76 NE7       30.49R
FRONT RANGE AP PTSUNNY   41  34  75 N15       30.45R
ERIE MUNI ARPT CLOUDY    42  32  68 E8        30.53R
BOULDER MUN AP CLOUDY    41  32  70 E8        30.46R
CENTENNIAL     PTSUNNY   39  30  70 N5        30.47R
BROOMFIELD     CLOUDY    41  32  70 E9        30.48R
FORT COLLINS   PTSUNNY   41  31  67 VRB5      30.46R
LONGMONT       CLOUDY    44  34  65 SE8       30.48R
$$

COZ041-046-047-076>085-087-088-231600-
...PIKES PEAK/PALMER DIVIDE AND SOUTHERN FOOTHILLS...

CITY           SKY/WX    TMP DP  RH WIND       PRES   REMARKS
COLO. SPRINGS  PTSUNNY   44  32  62 NE21G26   30.39R
A. F. ACADEMY  PTSUNNY   44  30  57 N16       30.40R
SCHRIEVER AFB  FAIR      41  32  69 NE21G29   30.39R
CHEYENNE MTN   FAIR      48  27  44 W7        30.35R
ELLICOTT         N/A    N/A N/A N/A NE26G37   30.37R
FALCON         FAIR      38  31  76 N21       30.42R
FORT CARSON    FAIR      46  32  58 NE8       30.37R
LIMON          FAIR      41  30  65 N29G36    30.42R
MONUMENT HILL  CLOUDY    34  32  93 E14G20    30.46R WCI  24
CANON CITY     FAIR      59  30  33 W9        30.35R
WALSENBURG     FAIR      63  27  25 W15G26    30.38R
TRINIDAD       FAIR      55  29  36 NW10      30.36R
$$

COZ042>045-048>051-090-091-231600-
...NORTHEAST COLORADO...

CITY           SKY/WX    TMP DP  RH WIND       PRES   REMARKS
GREELEY ARPT   FAIR      42  31  64 VRB5      30.45R
AKRON          FAIR      42  28  57 N23G31    30.37R
BURLINGTON     FAIR      47  32  56 N21G32    30.35R
WRAY           NOT AVBL
YUMA           NOT AVBL
STERLING       NOT AVBL
HOLYOKE        PTSUNNY   52  28  40 NW20G26   30.34R
FORT MORGAN    FAIR      42  28  58 N15G23    30.41R
$$

COZ086-089-092>099-231600-
...SOUTHEAST COLORADO...

CITY           SKY/WX    TMP DP  RH WIND       PRES   REMARKS
PUEBLO         FAIR      47  31  53 E3        30.36R
LA JUNTA       FAIR      53  34  48 NE14G20   30.37R
LAMAR          FAIR      53  35  50 NE15      30.33R
SPRINGFIELD      N/A     53  33  46 NE20G32   30.32R
$$



USA.gov is the U.S. government's official web portal to all federal, state and local government web resources and services.